Weather History for Mount Airy, NC

Change the Weather History Date:

Tuesday, April 9, 2013

  Actual Average (KINT) Record (KINT)
Temperature  
Mean Temperature 67 °F -  
Max Temperature 85 °F 66 °F 87 °F (2001)
Min Temperature 49 °F 46 °F 20 °F (1972)
Cooling Degree Days 2    
Growing Degree Days 17 (Base 50)    
Moisture  
Dew Point 49 °F    
Average Humidity 54    
Maximum Humidity 81    
Minimum Humidity 28    
Precipitation  
Precipitation 0.00 in - - ()
Sea Level Pressure  
Sea Level Pressure 30.12 in    
Wind  
Wind Speed 2 mph (SSW)    
Max Wind Speed 12 mph    
Max Gust Speed 20 mph    
Visibility 10 miles    
Events      
Averages and records for this station are not official NWS values.
T = Trace of Precipitation, MM = Missing Value Source: NWS Daily Summary

Daily Weather History Graph

Daily Weather History Graph

Search for Another Location

Airport:

Trip Planner

Search our weather history database for the weather conditions in past years. The results will help you decide how hot, cold, wet, or windy it might be!

Date:

Astronomy

Apr. 09, 2013 Rise Set
Actual Time 6:56 AM EDT 7:51 PM EDT
Civil Twilight 6:30 AM EDT 8:17 PM EDT
Nautical Twilight 5:59 AM EDT 8:48 PM EDT
Astronomical Twilight 5:27 AM EDT 9:21 PM EDT
Moon 6:17 AM EDT (4/9) 7:25 PM EDT (4/9)
Length of Visible Light 13h 47m
Length of Day
12h 54m
Waning Crescent, 1% of the Moon is Illuminated
Apr 9
Waning Crescent
Apr 10
New
Apr 18
First Quarter
Apr 25
Full
May 2
Last Quarter

Hourly Weather History & Observations

Time (EDT) Temp. Dew Point Humidity Pressure Visibility Wind Dir Wind Speed Gust Speed Precip Events Conditions
12:15 AM 60.4 °F 45.3 °F 57% 30.09 in 10.0 mi Calm Calm - N/A   Clear
12:35 AM 57.6 °F 43.7 °F 60% 30.10 in 10.0 mi Calm Calm - N/A   Clear
12:55 AM 57.2 °F 44.6 °F 63% 30.11 in 10.0 mi Calm Calm - N/A   Clear
1:15 AM 57.2 °F 46.4 °F 67% 30.11 in 10.0 mi Calm Calm - N/A   Clear
1:35 AM 55.0 °F 43.5 °F 65% 30.11 in 10.0 mi Calm Calm - N/A   Clear
1:55 AM 54.1 °F 43.3 °F 67% 30.11 in 10.0 mi Calm Calm - N/A   Clear
2:15 AM 53.6 °F 43.0 °F 67% 30.11 in 10.0 mi Calm Calm - N/A   Clear
2:35 AM 53.6 °F 44.1 °F 70% 30.11 in 10.0 mi Calm Calm - N/A   Clear
2:55 AM 54.7 °F 46.4 °F 74% 30.11 in 10.0 mi Calm Calm - N/A   Clear
3:15 AM 54.0 °F 45.3 °F 73% 30.11 in 10.0 mi Calm Calm - N/A   Clear
3:35 AM 52.2 °F 42.8 °F 70% 30.11 in 10.0 mi Calm Calm - N/A   Clear
3:55 AM 52.9 °F 46.2 °F 78% 30.11 in 10.0 mi Calm Calm - N/A   Clear
4:15 AM 52.2 °F 43.9 °F 73% 30.11 in 10.0 mi Calm Calm - N/A   Clear
4:35 AM 52.2 °F 46.2 °F 80% 30.12 in 10.0 mi Calm Calm - N/A   Clear
4:55 AM 50.9 °F 43.0 °F 74% 30.12 in 10.0 mi Calm Calm - N/A   Clear
5:15 AM 50.5 °F 43.0 °F 75% 30.12 in 10.0 mi South 3.5 mph - N/A   Clear
5:35 AM 50.0 °F 43.9 °F 79% 30.13 in 10.0 mi Calm Calm - N/A   Clear
5:55 AM 49.6 °F 42.6 °F 77% 30.13 in 10.0 mi Calm Calm - N/A   Clear
6:15 AM 49.3 °F 42.8 °F 78% 30.14 in 10.0 mi Calm Calm - N/A   Clear
6:35 AM 49.8 °F 44.1 °F 81% 30.15 in 10.0 mi Calm Calm - N/A   Clear
6:55 AM 49.1 °F 42.8 °F 79% 30.15 in 10.0 mi Calm Calm - N/A   Clear
7:15 AM 50.0 °F 44.2 °F 81% 30.16 in 10.0 mi Calm Calm - N/A   Clear
7:35 AM 51.3 °F 45.5 °F 81% 30.17 in 10.0 mi Calm Calm - N/A   Clear
7:55 AM 53.6 °F 47.7 °F 80% 30.17 in 10.0 mi Calm Calm - N/A   Clear
8:15 AM 56.1 °F 50.0 °F 80% 30.18 in 10.0 mi Calm Calm - N/A   Clear
8:35 AM 59.5 °F 53.1 °F 79% 30.18 in 10.0 mi Calm Calm - N/A   Clear
8:55 AM 62.4 °F 55.2 °F 77% 30.18 in 10.0 mi Calm Calm - N/A   Clear
9:15 AM 64.9 °F 57.0 °F 75% 30.18 in 10.0 mi Calm Calm - N/A   Clear
9:35 AM 68.0 °F 60.1 °F 76% 30.19 in 10.0 mi Calm Calm - N/A   Clear
9:55 AM 69.6 °F 59.4 °F 70% 30.19 in 10.0 mi Calm Calm - N/A   Clear
10:15 AM 70.7 °F 55.0 °F 58% 30.19 in 10.0 mi Calm Calm - N/A   Clear
10:35 AM 73.0 °F 60.6 °F 65% 30.20 in 10.0 mi Calm Calm - N/A   Clear
10:55 AM 75.2 °F 56.5 °F 52% 30.20 in 10.0 mi SSW 4.6 mph - N/A   Clear
11:15 AM 76.6 °F 58.1 °F 53% 30.20 in 10.0 mi SSE 4.6 mph - N/A   Clear
11:35 AM 77.9 °F 54.0 °F 43% 30.19 in 10.0 mi SSW 3.5 mph - N/A   Clear
11:55 AM 78.8 °F 53.4 °F 41% 30.18 in 10.0 mi SSW 4.6 mph - N/A   Clear
12:15 PM 80.1 °F 52.9 °F 39% 30.17 in 10.0 mi Calm Calm - N/A   Clear
12:35 PM 80.1 °F 50.7 °F 36% 30.17 in 10.0 mi Calm Calm - N/A   Clear
12:55 PM 81.5 °F 51.6 °F 35% 30.16 in 10.0 mi WSW 4.6 mph - N/A   Clear
1:15 PM 82.6 °F 51.3 °F 34% 30.16 in 10.0 mi WSW 3.5 mph - N/A   Clear
1:35 PM 82.8 °F 50.7 °F 33% 30.15 in 10.0 mi ESE 5.8 mph - N/A   Clear
1:55 PM 82.9 °F 48.9 °F 31% 30.14 in 10.0 mi SSW 8.1 mph - N/A   Clear
2:15 PM 83.1 °F 48.7 °F 30% 30.13 in 10.0 mi Calm Calm - N/A   Clear
2:35 PM 84.6 °F 48.4 °F 28% 30.13 in 10.0 mi South 10.4 mph 16.1 mph N/A   Clear
2:55 PM 85.1 °F 48.4 °F 28% 30.12 in 10.0 mi South 6.9 mph - N/A   Clear
3:15 PM 84.2 °F 48.0 °F 28% 30.11 in 10.0 mi SSW 8.1 mph 16.1 mph N/A   Clear
3:35 PM 84.2 °F 48.0 °F 28% 30.11 in 10.0 mi SSW 8.1 mph 16.1 mph N/A   Clear
3:55 PM 84.2 °F 47.7 °F 28% 30.10 in 10.0 mi SSW 11.5 mph 17.3 mph N/A   Clear
4:15 PM 84.2 °F 47.7 °F 28% 30.10 in 10.0 mi WSW 10.4 mph 17.3 mph N/A   Clear
4:35 PM 83.8 °F 46.9 °F 28% 30.09 in 10.0 mi SSW 8.1 mph 17.3 mph N/A   Clear
4:55 PM 83.7 °F 47.3 °F 28% 30.09 in 10.0 mi South 10.4 mph - N/A   Clear
5:15 PM 83.8 °F 48.0 °F 29% 30.08 in 10.0 mi SSW 10.4 mph 19.6 mph N/A   Clear
5:35 PM 83.8 °F 48.6 °F 29% 30.08 in 10.0 mi SSW 6.9 mph 16.1 mph N/A   Clear
5:55 PM 82.8 °F 47.5 °F 29% 30.08 in 10.0 mi SSW 9.2 mph - N/A   Clear
6:15 PM 82.4 °F 47.8 °F 30% 30.08 in 10.0 mi South 6.9 mph - N/A   Clear
6:35 PM 81.9 °F 49.1 °F 32% 30.08 in 10.0 mi SSW 8.1 mph - N/A   Clear
6:55 PM 80.8 °F 50.9 °F 35% 30.08 in 10.0 mi SSW 6.9 mph - N/A   Clear
7:15 PM 79.5 °F 51.3 °F 37% 30.08 in 10.0 mi South 6.9 mph - N/A   Clear
7:35 PM 77.5 °F 52.5 °F 42% 30.08 in 10.0 mi South 5.8 mph - N/A   Clear
7:55 PM 76.5 °F 52.5 °F 43% 30.08 in 10.0 mi SSW 6.9 mph - N/A   Clear
8:15 PM 75.7 °F 52.9 °F 45% 30.09 in 10.0 mi South 3.5 mph - N/A   Clear
8:35 PM 74.8 °F 53.1 °F 47% 30.09 in 10.0 mi SSW 4.6 mph - N/A   Clear
8:55 PM 74.1 °F 52.9 °F 47% 30.09 in 10.0 mi SSW 3.5 mph - N/A   Clear
9:15 PM 73.6 °F 53.1 °F 49% 30.10 in 10.0 mi SSW 3.5 mph - N/A   Clear
9:35 PM 72.7 °F 53.1 °F 50% 30.10 in 10.0 mi SSW 3.5 mph - N/A   Clear
9:55 PM 72.3 °F 53.2 °F 51% 30.10 in 10.0 mi Calm Calm - N/A   Clear
10:15 PM 71.1 °F 53.1 °F 53% 30.10 in 10.0 mi SSW 3.5 mph - N/A   Clear
10:35 PM 70.7 °F 53.2 °F 54% 30.10 in 10.0 mi SSW 3.5 mph - N/A   Clear
10:55 PM 70.5 °F 53.1 °F 54% 30.09 in 10.0 mi SSW 3.5 mph - N/A   Clear
11:15 PM 69.8 °F 52.9 °F 55% 30.09 in 10.0 mi Calm Calm - N/A   Clear
11:35 PM 68.0 °F 50.2 °F 53% 30.08 in 10.0 mi Calm Calm - N/A   Clear
11:55 PM 67.1 °F 51.6 °F 57% 30.09 in 10.0 mi Calm Calm - N/A   Clear